Location: Ajisawe
(8.4333°N, 4.3833°E)
Time: 12:18:39
(UTC+00:00)

Courier 1B Rocket - Pass Details

Date: 28 April 2021
Orbit: 920 x 1202 km, 28.2° (Epoch: 07 May)

Event Time Altitude Azimuth Distance (km) Brightness Sun altitude
Rises 16:23:30 0° 295° (WNW) 3,545 9.4 20.5°
Reaches altitude 10° 16:27:34 10° 320° (NW) 2,601 8.2 19.5°
Maximum altitude 16:30:38 14° 350° (N) 2,341 7.4 18.8°
Drops below altitude 10° 16:33:44 10° 20° (NNE) 2,630 7.3 18.0°
Sets 16:37:54 0° 45° (NE) 3,614 7.7 17.0°
